DLH36E BIKF-EIDW

Flight info

Callsign DLH36E
Flight time 2h 15m
Altitude 37000
Route RIMUM1A RIMUM DCT RUMUX DCT RAPAX DCT ETILO/N0456F370 DCT EVNAL DCT TUXOS DCT BELZU DCT NUMPI/N0417F240 P620 NIMAT NIMAT4L
Aircraft A320/M-SDE3FGHIRWY/LB1

Departure

Time 2026-05-07 10:54
Airport Keflavik International Airport (BIKF)

Arrival

Time 2026-05-07 13:09
Airport Dublin Airport (EIDW)
Time Latitude Longitude Altitude Speed Heading
2026-05-07 10:22 63.99377 -22.62202 141 ft 0 kts 238°
2026-05-07 10:43 63.99389 -22.62160 140 ft 4 kts 234°
2026-05-07 10:43 63.99405 -22.62112 140 ft 4 kts 226°
2026-05-07 10:43 63.99425 -22.62072 140 ft 4 kts 206°
2026-05-07 10:44 63.99447 -22.62063 140 ft 2 kts 152°
2026-05-07 10:44 63.99452 -22.62070 140 ft 0 kts 150°
2026-05-07 10:46 63.99450 -22.62067 140 ft 3 kts 150°
2026-05-07 10:46 63.99351 -22.61987 140 ft 18 kts 178°
2026-05-07 10:46 63.99231 -22.61984 140 ft 16 kts 181°
2026-05-07 10:47 63.99171 -22.61861 141 ft 13 kts 86°
2026-05-07 10:47 63.99173 -22.61616 146 ft 19 kts 89°
2026-05-07 10:47 63.99174 -22.61335 152 ft 15 kts 90°
2026-05-07 10:47 63.99156 -22.61134 157 ft 12 kts 136°
2026-05-07 10:48 63.99039 -22.61123 160 ft 19 kts 180°
2026-05-07 10:48 63.98909 -22.61125 159 ft 18 kts 181°
2026-05-07 10:48 63.98788 -22.61124 160 ft 20 kts 180°
2026-05-07 10:48 63.98617 -22.61125 160 ft 26 kts 180°
2026-05-07 10:49 63.98434 -22.61127 160 ft 28 kts 180°
2026-05-07 10:49 63.98240 -22.61125 161 ft 25 kts 179°
2026-05-07 10:49 63.98140 -22.61014 164 ft 11 kts 115°
2026-05-07 10:49 63.98041 -22.60939 168 ft 28 kts 182°
2026-05-07 10:50 63.97838 -22.60940 170 ft 30 kts 180°
2026-05-07 10:50 63.97627 -22.60939 168 ft 31 kts 180°
2026-05-07 10:50 63.97425 -22.60940 165 ft 29 kts 180°
2026-05-07 10:50 63.97213 -22.60939 158 ft 32 kts 179°
2026-05-07 10:51 63.97010 -22.60936 151 ft 27 kts 180°
2026-05-07 10:51 63.96816 -22.60937 143 ft 30 kts 180°
2026-05-07 10:51 63.96635 -22.60939 137 ft 25 kts 180°
2026-05-07 10:51 63.96497 -22.60933 135 ft 14 kts 170°
2026-05-07 10:52 63.96460 -22.60791 138 ft 8 kts 86°
2026-05-07 10:52 63.96461 -22.60712 141 ft 6 kts 89°
2026-05-07 10:52 63.96484 -22.60547 145 ft 12 kts 27°
2026-05-07 10:52 63.96531 -22.60541 147 ft 0 kts 360°
2026-05-07 10:53 63.96535 -22.60541 147 ft 4 kts 360°
2026-05-07 10:53 63.96743 -22.60537 155 ft 64 kts
2026-05-07 10:53 63.97402 -22.60534 172 ft 122 kts
2026-05-07 10:53 63.98412 -22.60532 279 ft 159 kts
2026-05-07 10:54 63.99502 -22.60566 990 ft 156 kts
2026-05-07 10:54 64.00589 -22.60605 1691 ft 157 kts
2026-05-07 10:54 64.01707 -22.60628 2239 ft 167 kts
2026-05-07 10:54 64.02948 -22.60611 2533 ft 189 kts
2026-05-07 10:55 64.04302 -22.60583 3043 ft 198 kts
2026-05-07 10:55 64.05607 -22.59732 3741 ft 199 kts 38°
2026-05-07 10:55 64.06351 -22.57043 4308 ft 215 kts 76°
2026-05-07 10:55 64.06472 -22.53509 4943 ft 227 kts 86°
2026-05-07 10:56 64.06458 -22.49871 5785 ft 232 kts 88°
2026-05-07 10:56 64.06285 -22.46181 6652 ft 238 kts 103°
2026-05-07 10:56 64.05468 -22.42832 7417 ft 249 kts 128°
2026-05-07 10:56 64.03989 -22.40435 7891 ft 276 kts 157°
2026-05-07 10:57 64.02073 -22.39396 8539 ft 287 kts 166°
2026-05-07 10:57 64.00098 -22.38468 9312 ft 292 kts 165°
2026-05-07 10:57 63.98107 -22.37509 10093 ft 295 kts 166°
2026-05-07 10:57 63.96062 -22.36509 10636 ft 309 kts 166°
2026-05-07 10:58 63.93882 -22.35420 10885 ft 332 kts 166°
2026-05-07 10:58 63.91548 -22.34245 11093 ft 355 kts 166°
2026-05-07 10:58 63.89098 -22.33029 11595 ft 365 kts 166°
2026-05-07 10:58 63.86600 -22.31803 12267 ft 369 kts 167°
2026-05-07 10:59 63.84071 -22.30568 12965 ft 373 kts 167°
2026-05-07 10:59 63.81526 -22.29323 13631 ft 376 kts 167°
2026-05-07 10:59 63.78958 -22.28061 14262 ft 379 kts 167°
2026-05-07 10:59 63.76363 -22.26789 14849 ft 383 kts 167°
2026-05-07 11:00 63.73742 -22.25512 15447 ft 387 kts 167°
2026-05-07 11:00 63.71100 -22.24233 16032 ft 391 kts 167°
2026-05-07 11:00 63.68469 -22.22963 16598 ft 394 kts 167°
2026-05-07 11:00 63.65780 -22.21661 17163 ft 397 kts 167°
2026-05-07 11:01 63.63070 -22.20351 17687 ft 400 kts 167°
2026-05-07 11:01 63.60336 -22.19037 18210 ft 403 kts 167°
2026-05-07 11:01 63.57583 -22.17714 18702 ft 406 kts 167°
2026-05-07 11:01 63.54812 -22.16380 19174 ft 409 kts 167°
2026-05-07 11:02 63.52064 -22.14688 19640 ft 412 kts 159°
2026-05-07 11:02 63.49433 -22.12122 20085 ft 414 kts 154°
2026-05-07 11:02 63.46815 -22.09368 20541 ft 417 kts 154°
2026-05-07 11:02 63.44172 -22.06600 20997 ft 421 kts 154°
2026-05-07 11:03 63.41522 -22.03829 21412 ft 422 kts 154°
2026-05-07 11:03 63.38847 -22.01042 21821 ft 426 kts 154°
2026-05-07 11:03 63.36149 -21.98240 22247 ft 429 kts 154°
2026-05-07 11:03 63.33438 -21.95439 22683 ft 431 kts 154°
2026-05-07 11:04 63.30712 -21.92625 23087 ft 434 kts 154°
2026-05-07 11:04 63.27961 -21.89791 23481 ft 436 kts 154°
2026-05-07 11:04 63.25201 -21.86953 23849 ft 437 kts 153°
2026-05-07 11:04 63.22432 -21.84095 24192 ft 440 kts 154°
2026-05-07 11:05 63.19646 -21.81227 24518 ft 443 kts 154°
2026-05-07 11:05 63.16840 -21.78356 24854 ft 446 kts 154°
2026-05-07 11:05 63.14015 -21.75477 25199 ft 448 kts 154°
2026-05-07 11:05 63.11213 -21.72615 25549 ft 450 kts 153°
2026-05-07 11:06 63.08500 -21.69140 25874 ft 451 kts 144°
2026-05-07 11:06 63.06055 -21.64830 26213 ft 451 kts 135°
2026-05-07 11:06 63.03908 -21.59786 26539 ft 452 kts 129°
2026-05-07 11:06 63.01834 -21.54554 26868 ft 454 kts 129°
2026-05-07 11:07 62.99738 -21.49321 27165 ft 456 kts 129°
2026-05-07 11:07 62.97625 -21.44092 27440 ft 458 kts 130°
2026-05-07 11:07 62.95501 -21.38861 27706 ft 460 kts 130°
2026-05-07 11:07 62.93361 -21.33605 27978 ft 462 kts 130°
2026-05-07 11:08 62.91208 -21.28331 28248 ft 464 kts 130°
2026-05-07 11:08 62.89051 -21.23047 28498 ft 466 kts 130°
2026-05-07 11:08 62.86884 -21.17745 28759 ft 468 kts 130°
2026-05-07 11:08 62.84709 -21.12437 29034 ft 469 kts 130°
2026-05-07 11:09 62.82531 -21.07135 29387 ft 468 kts 130°
2026-05-07 11:09 62.80355 -21.01845 29735 ft 467 kts 130°
2026-05-07 11:09 62.78182 -20.96579 30071 ft 467 kts 130°
2026-05-07 11:09 62.76007 -20.91323 30398 ft 466 kts 130°
2026-05-07 11:10 62.74566 -20.87844 30599 ft 466 kts 130°
2026-05-07 11:10 62.71682 -20.80900 31024 ft 466 kts 130°
2026-05-07 11:10 62.69506 -20.75672 31325 ft 466 kts 130°
2026-05-07 11:10 62.67327 -20.70447 31632 ft 466 kts 130°
2026-05-07 11:11 62.65145 -20.65223 31918 ft 466 kts 131°
2026-05-07 11:11 62.62963 -20.60015 32216 ft 466 kts 131°
2026-05-07 11:11 62.61518 -20.56576 32418 ft 465 kts 131°
2026-05-07 11:11 62.59337 -20.51391 32687 ft 465 kts 131°
2026-05-07 11:12 62.57150 -20.46211 32967 ft 465 kts 131°
2026-05-07 11:12 62.54962 -20.41038 33241 ft 465 kts 131°
2026-05-07 11:12 62.52772 -20.35868 33535 ft 466 kts 131°
2026-05-07 11:12 62.50581 -20.30712 33838 ft 466 kts 131°
2026-05-07 11:13 62.48385 -20.25557 34135 ft 465 kts 132°
2026-05-07 11:13 62.46187 -20.20407 34425 ft 465 kts 132°
2026-05-07 11:13 62.43988 -20.15271 34711 ft 465 kts 132°
2026-05-07 11:13 62.41791 -20.10151 34978 ft 465 kts 132°
2026-05-07 11:14 62.39591 -20.05041 35219 ft 465 kts 132°
2026-05-07 11:14 62.37369 -19.99975 35447 ft 465 kts 136°
2026-05-07 11:14 62.34968 -19.95295 35664 ft 466 kts 138°
2026-05-07 11:14 62.32549 -19.90669 35902 ft 466 kts 138°
2026-05-07 11:15 62.30126 -19.86032 36129 ft 466 kts 138°
2026-05-07 11:15 62.27710 -19.81410 36341 ft 466 kts 138°
2026-05-07 11:15 62.25285 -19.76793 36532 ft 466 kts 138°
2026-05-07 11:15 62.22858 -19.72182 36732 ft 466 kts 138°
2026-05-07 11:16 62.20431 -19.67575 36982 ft 465 kts 138°
2026-05-07 11:16 62.18009 -19.62992 37111 ft 464 kts 138°
2026-05-07 11:16 62.13165 -19.53852 37118 ft 463 kts 138°
2026-05-07 11:17 62.08326 -19.44759 37122 ft 463 kts 139°
2026-05-07 11:17 62.03483 -19.35732 37119 ft 463 kts 139°
2026-05-07 11:18 61.98635 -19.26721 37118 ft 463 kts 139°
2026-05-07 11:18 61.93781 -19.17718 37120 ft 463 kts 139°
2026-05-07 11:19 61.88922 -19.08751 37127 ft 463 kts 139°
2026-05-07 11:19 61.84089 -18.99862 37134 ft 463 kts 139°
2026-05-07 11:20 61.79222 -18.90964 37134 ft 462 kts 139°
2026-05-07 11:20 61.74355 -18.82095 37137 ft 462 kts 139°
2026-05-07 11:21 61.69486 -18.73279 37134 ft 461 kts 140°
2026-05-07 11:21 61.64609 -18.64488 37135 ft 461 kts 140°
2026-05-07 11:22 61.59731 -18.55720 37138 ft 461 kts 139°
2026-05-07 11:22 61.54850 -18.46992 37137 ft 461 kts 140°
2026-05-07 11:23 61.50023 -18.38147 37139 ft 461 kts 134°
2026-05-07 11:23 61.45881 -18.27916 37140 ft 461 kts 129°
2026-05-07 11:24 61.41796 -18.17597 37129 ft 461 kts 129°
2026-05-07 11:24 61.37695 -18.07302 37121 ft 461 kts 130°
2026-05-07 11:25 61.33587 -17.97052 37110 ft 461 kts 130°
2026-05-07 11:25 61.29465 -17.86820 37113 ft 461 kts 130°
2026-05-07 11:26 61.25340 -17.76628 37112 ft 460 kts 130°
2026-05-07 11:26 61.21215 -17.66467 37111 ft 461 kts 130°
2026-05-07 11:27 61.17075 -17.56322 37097 ft 461 kts 131°
2026-05-07 11:27 61.12928 -17.46199 37096 ft 461 kts 131°
2026-05-07 11:28 61.08775 -17.36081 37097 ft 461 kts 131°
2026-05-07 11:28 61.04609 -17.25998 37101 ft 462 kts 131°
2026-05-07 11:29 61.00430 -17.15934 37102 ft 462 kts 131°
2026-05-07 11:29 60.96239 -17.05886 37107 ft 463 kts 131°
2026-05-07 11:30 60.92041 -16.95855 37103 ft 462 kts 131°
2026-05-07 11:30 60.87833 -16.85862 37106 ft 462 kts 132°
2026-05-07 11:31 60.83653 -16.75956 37101 ft 462 kts 132°
2026-05-07 11:31 60.79435 -16.66012 37105 ft 462 kts 132°
2026-05-07 11:32 60.73105 -16.51170 37104 ft 461 kts 132°
2026-05-07 11:33 60.68879 -16.41316 37095 ft 461 kts 132°
2026-05-07 11:33 60.64652 -16.31493 37085 ft 461 kts 133°
2026-05-07 11:34 60.60403 -16.21675 37083 ft 462 kts 133°
2026-05-07 11:34 60.56149 -16.11880 37083 ft 462 kts 133°
2026-05-07 11:35 60.51888 -16.02117 37082 ft 462 kts 133°
2026-05-07 11:35 60.47618 -15.92366 37083 ft 462 kts 133°
2026-05-07 11:36 60.43339 -15.82653 37083 ft 462 kts 134°
2026-05-07 11:36 60.39058 -15.72962 37081 ft 461 kts 134°
2026-05-07 11:37 60.34783 -15.63327 37082 ft 460 kts 134°
2026-05-07 11:37 60.30493 -15.53717 37076 ft 461 kts 134°
2026-05-07 11:38 60.26198 -15.44133 37076 ft 461 kts 134°
2026-05-07 11:38 60.21896 -15.34547 37063 ft 461 kts 134°
2026-05-07 11:39 60.17588 -15.24994 37065 ft 461 kts 134°
2026-05-07 11:39 60.13270 -15.15485 37069 ft 461 kts 134°
2026-05-07 11:40 60.08945 -15.06011 37070 ft 460 kts 135°
2026-05-07 11:40 60.04619 -14.96548 37067 ft 460 kts 134°
2026-05-07 11:41 60.00295 -14.87118 37067 ft 460 kts 135°
2026-05-07 11:41 59.95967 -14.77720 37069 ft 460 kts 135°
2026-05-07 11:42 59.91631 -14.68362 37062 ft 459 kts 136°
2026-05-07 11:42 59.87288 -14.59024 37057 ft 459 kts 136°
2026-05-07 11:43 59.82952 -14.49709 37049 ft 459 kts 136°
2026-05-07 11:43 59.78605 -14.40435 37050 ft 458 kts 136°
2026-05-07 11:44 59.74249 -14.31198 37041 ft 458 kts 136°
2026-05-07 11:44 59.69928 -14.22067 36951 ft 457 kts 136°
2026-05-07 11:45 59.65576 -14.12901 36942 ft 457 kts 136°
2026-05-07 11:45 59.61224 -14.03755 36934 ft 456 kts 136°
2026-05-07 11:46 59.56873 -13.94643 36919 ft 456 kts 136°
2026-05-07 11:46 59.52503 -13.85551 36930 ft 457 kts 136°
2026-05-07 11:47 59.48131 -13.76483 36929 ft 457 kts 137°
2026-05-07 11:47 59.43749 -13.67447 36910 ft 456 kts 137°
2026-05-07 11:48 59.39365 -13.58451 36921 ft 455 kts 137°
2026-05-07 11:48 59.34987 -13.49464 36914 ft 455 kts 137°
2026-05-07 11:49 59.30606 -13.40508 36911 ft 455 kts 137°
2026-05-07 11:49 59.26211 -13.31576 36914 ft 455 kts 138°
2026-05-07 11:50 59.21806 -13.22678 36913 ft 455 kts 138°
2026-05-07 11:50 59.17404 -13.13796 36912 ft 455 kts 138°
2026-05-07 11:51 59.13030 -13.04988 36907 ft 455 kts 138°
2026-05-07 11:51 59.08590 -12.96108 36914 ft 454 kts 139°
2026-05-07 11:52 59.04207 -12.87397 36898 ft 454 kts 139°
2026-05-07 11:52 58.99761 -12.78579 36897 ft 454 kts 139°
2026-05-07 11:53 58.95353 -12.69844 36898 ft 453 kts 139°
2026-05-07 11:53 58.90936 -12.61144 36891 ft 453 kts 139°
2026-05-07 11:54 58.87260 -12.53934 36897 ft 453 kts 139°
2026-05-07 11:54 58.82834 -12.45289 36892 ft 452 kts 139°
2026-05-07 11:55 58.77694 -12.35263 36885 ft 452 kts 139°
2026-05-07 11:55 58.73977 -12.28052 36890 ft 452 kts 140°
2026-05-07 11:56 58.69544 -12.19499 36888 ft 451 kts 140°
2026-05-07 11:56 58.65103 -12.10950 36883 ft 451 kts 140°
2026-05-07 11:57 58.60697 -12.02496 36875 ft 450 kts 140°
2026-05-07 11:57 58.56255 -11.94011 36879 ft 450 kts 140°
2026-05-07 11:58 58.51818 -11.85557 36875 ft 450 kts 140°
2026-05-07 11:58 58.47375 -11.77137 36874 ft 449 kts 141°
2026-05-07 11:59 58.42938 -11.68748 36873 ft 449 kts 141°
2026-05-07 11:59 58.38497 -11.60378 36864 ft 449 kts 141°
2026-05-07 12:00 58.34049 -11.52047 36860 ft 449 kts 141°
2026-05-07 12:00 58.29597 -11.43732 36863 ft 449 kts 141°
2026-05-07 12:01 58.25128 -11.35406 36857 ft 449 kts 141°
2026-05-07 12:01 58.20666 -11.27127 36852 ft 449 kts 141°
2026-05-07 12:02 58.16200 -11.18871 36848 ft 448 kts 141°
2026-05-07 12:02 58.11731 -11.10658 36846 ft 448 kts 141°
2026-05-07 12:03 58.07261 -11.02458 36846 ft 448 kts 141°
2026-05-07 12:03 58.02794 -10.94276 36845 ft 447 kts 142°
2026-05-07 12:04 57.98319 -10.86127 36851 ft 448 kts 142°
2026-05-07 12:04 57.93822 -10.77983 36853 ft 448 kts 142°
2026-05-07 12:05 57.89371 -10.69933 36847 ft 447 kts 142°
2026-05-07 12:05 57.84893 -10.61863 36842 ft 445 kts 142°
2026-05-07 12:06 57.80434 -10.53877 36837 ft 443 kts 143°
2026-05-07 12:06 57.75985 -10.45911 36832 ft 442 kts 143°
2026-05-07 12:07 57.71520 -10.37967 36832 ft 442 kts 143°
2026-05-07 12:07 57.67066 -10.30047 36814 ft 442 kts 143°
2026-05-07 12:08 57.62615 -10.22145 36829 ft 441 kts 143°
2026-05-07 12:08 57.58155 -10.14308 36841 ft 440 kts 143°
2026-05-07 12:09 57.53696 -10.06480 36832 ft 440 kts 143°
2026-05-07 12:09 57.49879 -9.97414 36841 ft 454 kts 125°
2026-05-07 12:10 57.47530 -9.86360 36834 ft 463 kts 114°
2026-05-07 12:10 57.45466 -9.75028 36842 ft 463 kts 115°
2026-05-07 12:11 57.43379 -9.63725 36842 ft 463 kts 115°
2026-05-07 12:11 57.40823 -9.52973 36852 ft 452 kts 129°
2026-05-07 12:12 57.36840 -9.44293 36854 ft 435 kts 146°
2026-05-07 12:12 57.32111 -9.37414 36841 ft 431 kts 148°
2026-05-07 12:13 57.27381 -9.30637 36837 ft 430 kts 149°
2026-05-07 12:13 57.22642 -9.23873 36833 ft 430 kts 148°
2026-05-07 12:14 57.17908 -9.17120 36838 ft 431 kts 148°
2026-05-07 12:14 57.13154 -9.10367 36840 ft 432 kts 148°
2026-05-07 12:15 57.08398 -9.03639 36841 ft 431 kts 148°
2026-05-07 12:15 57.03643 -8.96938 36839 ft 430 kts 148°
2026-05-07 12:16 56.98911 -8.90293 36838 ft 428 kts 148°
2026-05-07 12:16 56.94180 -8.83680 36827 ft 428 kts 148°
2026-05-07 12:17 56.89443 -8.77082 36827 ft 429 kts 148°
2026-05-07 12:17 56.84702 -8.70461 36831 ft 429 kts 148°
2026-05-07 12:18 56.79958 -8.63868 36827 ft 428 kts 149°
2026-05-07 12:18 56.75237 -8.57355 36829 ft 429 kts 148°
2026-05-07 12:19 56.70467 -8.50807 36842 ft 429 kts 148°
2026-05-07 12:19 56.65702 -8.44262 36847 ft 430 kts 148°
2026-05-07 12:20 56.60924 -8.37717 36854 ft 430 kts 148°
2026-05-07 12:20 56.56153 -8.31204 36852 ft 429 kts 148°
2026-05-07 12:21 56.51399 -8.24722 36857 ft 428 kts 148°
2026-05-07 12:21 56.46635 -8.18282 36873 ft 427 kts 148°
2026-05-07 12:22 56.41865 -8.11857 36875 ft 428 kts 148°
2026-05-07 12:22 56.37094 -8.05430 36886 ft 428 kts 148°
2026-05-07 12:23 56.32332 -7.99011 36897 ft 427 kts 148°
2026-05-07 12:23 56.27570 -7.92628 36895 ft 426 kts 148°
2026-05-07 12:24 56.22803 -7.86282 36894 ft 426 kts 148°
2026-05-07 12:24 56.18029 -7.79942 36886 ft 427 kts 148°
2026-05-07 12:25 56.13259 -7.73610 36887 ft 427 kts 148°
2026-05-07 12:25 56.08483 -7.67298 36891 ft 426 kts 148°
2026-05-07 12:26 56.03702 -7.60982 36896 ft 427 kts 148°
2026-05-07 12:26 55.98919 -7.54693 36887 ft 427 kts 148°
2026-05-07 12:27 55.93955 -7.49166 36884 ft 422 kts 154°
2026-05-07 12:27 55.88849 -7.43960 36898 ft 423 kts 154°
2026-05-07 12:28 55.83745 -7.38757 36899 ft 423 kts 154°
2026-05-07 12:28 55.78643 -7.33567 36890 ft 423 kts 154°
2026-05-07 12:29 55.73537 -7.28393 36892 ft 422 kts 154°
2026-05-07 12:29 55.68431 -7.23232 36891 ft 422 kts 154°
2026-05-07 12:30 55.63322 -7.18085 36884 ft 422 kts 154°
2026-05-07 12:30 55.58219 -7.12948 36897 ft 422 kts 154°
2026-05-07 12:31 55.53122 -7.07846 36893 ft 422 kts 154°
2026-05-07 12:31 55.48001 -7.02748 36909 ft 423 kts 154°
2026-05-07 12:32 55.42878 -6.97654 36913 ft 423 kts 154°
2026-05-07 12:32 55.37752 -6.92548 36906 ft 423 kts 154°
2026-05-07 12:33 55.30040 -6.84924 36916 ft 424 kts 154°
2026-05-07 12:33 55.24892 -6.79862 36911 ft 424 kts 154°
2026-05-07 12:34 55.19752 -6.74799 36907 ft 424 kts 154°
2026-05-07 12:34 55.14609 -6.69751 36921 ft 424 kts 154°
2026-05-07 12:35 55.09458 -6.64722 36907 ft 424 kts 154°
2026-05-07 12:35 55.04297 -6.59717 36916 ft 424 kts 154°
2026-05-07 12:36 54.99132 -6.54712 36911 ft 425 kts 154°
2026-05-07 12:36 54.93961 -6.49703 36932 ft 425 kts 153°
2026-05-07 12:37 54.88795 -6.44708 36932 ft 425 kts 154°
2026-05-07 12:37 54.83626 -6.39742 36930 ft 425 kts 154°
2026-05-07 12:38 54.78451 -6.34776 36930 ft 425 kts 154°
2026-05-07 12:38 54.73308 -6.29849 36932 ft 425 kts 153°
2026-05-07 12:39 54.68120 -6.24909 36933 ft 425 kts 153°
2026-05-07 12:39 54.63153 -6.19309 36934 ft 428 kts 146°
2026-05-07 12:40 54.58337 -6.13288 36936 ft 428 kts 146°
2026-05-07 12:40 54.54328 -6.08292 36934 ft 428 kts 146°
2026-05-07 12:41 54.49497 -6.02298 36941 ft 428 kts 146°
2026-05-07 12:41 54.44655 -5.96309 36953 ft 429 kts 146°
2026-05-07 12:42 54.39804 -5.90333 36969 ft 429 kts 146°
2026-05-07 12:42 54.34958 -5.84362 36972 ft 428 kts 146°
2026-05-07 12:43 54.30131 -5.78444 35674 ft 428 kts 146°
2026-05-07 12:43 54.27685 -5.75455 34173 ft 435 kts 146°
2026-05-07 12:43 54.25212 -5.72438 32731 ft 437 kts 146°
2026-05-07 12:44 54.22729 -5.69411 31182 ft 440 kts 146°
2026-05-07 12:44 54.20181 -5.66479 29490 ft 443 kts 152°
2026-05-07 12:44 54.17353 -5.64371 27701 ft 445 kts 164°
2026-05-07 12:44 54.14318 -5.63366 26073 ft 443 kts 176°
2026-05-07 12:45 54.11254 -5.63473 24515 ft 439 kts 187°
2026-05-07 12:45 54.08308 -5.64639 23047 ft 432 kts 199°
2026-05-07 12:45 54.05612 -5.66728 22215 ft 415 kts 206°
2026-05-07 12:45 54.03048 -5.68888 21621 ft 409 kts 205°
2026-05-07 12:46 54.00499 -5.70988 20934 ft 406 kts 205°
2026-05-07 12:46 53.97923 -5.72911 20271 ft 401 kts 199°
2026-05-07 12:46 53.95235 -5.74080 19645 ft 397 kts 189°
2026-05-07 12:46 53.92500 -5.74484 19050 ft 393 kts 183°
2026-05-07 12:47 53.89821 -5.74665 18495 ft 388 kts 183°
2026-05-07 12:47 53.87141 -5.74856 17938 ft 384 kts 184°
2026-05-07 12:47 53.84490 -5.75051 17399 ft 379 kts 184°
2026-05-07 12:47 53.81874 -5.75241 16868 ft 374 kts 184°
2026-05-07 12:48 53.79289 -5.75429 16367 ft 369 kts 184°
2026-05-07 12:48 53.76741 -5.75612 15853 ft 365 kts 184°
2026-05-07 12:48 53.74216 -5.75791 15337 ft 361 kts 184°
2026-05-07 12:48 53.71711 -5.75970 14806 ft 358 kts 184°
2026-05-07 12:49 53.69258 -5.76500 14271 ft 357 kts 193°
2026-05-07 12:49 53.66936 -5.77965 13703 ft 359 kts 211°
2026-05-07 12:49 53.65058 -5.80694 13168 ft 357 kts 229°
2026-05-07 12:49 53.63749 -5.84236 12973 ft 357 kts 244°
2026-05-07 12:50 53.63052 -5.88262 12975 ft 362 kts 262°
2026-05-07 12:50 53.63254 -5.92512 12980 ft 369 kts 283°
2026-05-07 12:50 53.64352 -5.96436 12980 ft 376 kts 303°
2026-05-07 12:50 53.66224 -5.99538 12980 ft 383 kts 323°
2026-05-07 12:51 53.68651 -6.01414 12980 ft 388 kts 343°
2026-05-07 12:51 53.71343 -6.01808 12979 ft 392 kts
2026-05-07 12:51 53.73982 -6.00653 12980 ft 394 kts 24°
2026-05-07 12:51 53.76254 -5.98089 12982 ft 394 kts 43°
2026-05-07 12:52 53.78049 -5.94622 12980 ft 392 kts 60°
2026-05-07 12:52 53.79071 -5.90393 12981 ft 387 kts 81°
2026-05-07 12:52 53.79186 -5.85896 12981 ft 381 kts 101°
2026-05-07 12:52 53.78398 -5.81685 12989 ft 374 kts 121°
2026-05-07 12:53 53.76870 -5.78188 12797 ft 367 kts 139°
2026-05-07 12:53 53.74814 -5.75728 12554 ft 360 kts 156°
2026-05-07 12:53 53.72451 -5.74471 12321 ft 355 kts 173°
2026-05-07 12:53 53.70009 -5.74463 12066 ft 347 kts 190°
2026-05-07 12:54 53.67738 -5.75617 11667 ft 338 kts 206°
2026-05-07 12:54 53.65809 -5.77777 11238 ft 331 kts 221°
2026-05-07 12:54 53.64348 -5.80708 10930 ft 323 kts 237°
2026-05-07 12:54 53.63440 -5.84085 10807 ft 312 kts 251°
2026-05-07 12:55 53.62958 -5.87580 10675 ft 300 kts 255°
2026-05-07 12:55 53.62517 -5.90940 10551 ft 289 kts 254°
2026-05-07 12:55 53.62085 -5.94193 10335 ft 281 kts 254°
2026-05-07 12:55 53.61657 -5.97386 10092 ft 278 kts 254°
2026-05-07 12:56 53.61235 -6.00560 9877 ft 278 kts 254°
2026-05-07 12:56 53.60817 -6.03701 9759 ft 277 kts 254°
2026-05-07 12:56 53.60398 -6.06859 9643 ft 276 kts 254°
2026-05-07 12:56 53.59980 -6.09992 9520 ft 276 kts 253°
2026-05-07 12:57 53.59562 -6.13128 9398 ft 275 kts 253°
2026-05-07 12:57 53.59142 -6.16250 9274 ft 274 kts 253°
2026-05-07 12:57 53.58720 -6.19377 9162 ft 274 kts 253°
2026-05-07 12:57 53.58296 -6.22521 8726 ft 278 kts 253°
2026-05-07 12:58 53.57870 -6.25681 8371 ft 274 kts 253°
2026-05-07 12:58 53.57463 -6.28731 8253 ft 261 kts 254°
2026-05-07 12:58 53.57079 -6.31604 8141 ft 249 kts 253°
2026-05-07 12:58 53.56704 -6.34425 7951 ft 241 kts 253°
2026-05-07 12:59 53.56343 -6.37124 7879 ft 236 kts 255°
2026-05-07 12:59 53.56117 -6.39881 7685 ft 238 kts 259°
2026-05-07 12:59 53.55919 -6.42637 7408 ft 237 kts 259°
2026-05-07 12:59 53.55728 -6.45381 7122 ft 235 kts 259°
2026-05-07 13:00 53.55538 -6.48103 6836 ft 234 kts 259°
2026-05-07 13:00 53.55341 -6.50816 6557 ft 234 kts 259°
2026-05-07 13:00 53.55147 -6.53478 6276 ft 231 kts 259°
2026-05-07 13:00 53.54955 -6.56152 5991 ft 230 kts 259°
2026-05-07 13:01 53.54768 -6.58802 5708 ft 228 kts 259°
2026-05-07 13:01 53.54577 -6.61451 5425 ft 229 kts 259°
2026-05-07 13:01 53.54197 -6.63994 5157 ft 221 kts 240°
2026-05-07 13:01 53.53252 -6.65989 4913 ft 219 kts 216°
2026-05-07 13:02 53.51906 -6.67122 4619 ft 217 kts 193°
2026-05-07 13:02 53.50410 -6.67435 4423 ft 213 kts 185°
2026-05-07 13:02 53.48978 -6.67651 4312 ft 201 kts 186°
2026-05-07 13:02 53.47593 -6.67864 4212 ft 199 kts 186°
2026-05-07 13:03 53.46228 -6.68071 4118 ft 198 kts 184°
2026-05-07 13:03 53.44909 -6.67562 4031 ft 201 kts 146°
2026-05-07 13:03 53.44171 -6.65579 4012 ft 210 kts 103°
2026-05-07 13:03 53.44036 -6.63177 4020 ft 199 kts 98°
2026-05-07 13:04 53.43933 -6.60911 3914 ft 193 kts 99°
2026-05-07 13:04 53.43819 -6.58671 3687 ft 191 kts 99°
2026-05-07 13:04 53.43704 -6.56454 3446 ft 191 kts 99°
2026-05-07 13:04 53.43590 -6.54242 3186 ft 190 kts 99°
2026-05-07 13:05 53.43474 -6.52042 2933 ft 189 kts 99°
2026-05-07 13:05 53.43359 -6.49854 2689 ft 188 kts 98°
2026-05-07 13:05 53.43241 -6.47674 2435 ft 187 kts 98°
2026-05-07 13:05 53.43128 -6.45520 2194 ft 183 kts 98°
2026-05-07 13:06 53.43019 -6.43447 1946 ft 175 kts 97°
2026-05-07 13:06 53.42915 -6.41480 1730 ft 163 kts 97°
2026-05-07 13:06 53.42817 -6.39651 1521 ft 153 kts 96°
2026-05-07 13:06 53.42726 -6.37946 1331 ft 141 kts 97°
2026-05-07 13:07 53.42640 -6.36344 1145 ft 136 kts 96°
2026-05-07 13:07 53.42555 -6.34771 964 ft 134 kts 97°
2026-05-07 13:07 53.42471 -6.33216 748 ft 134 kts 96°
2026-05-07 13:07 53.42389 -6.31656 561 ft 134 kts 96°
2026-05-07 13:08 53.42309 -6.30102 373 ft 134 kts 96°
2026-05-07 13:08 53.42222 -6.28556 238 ft 133 kts 96°
2026-05-07 13:08 53.42136 -6.27157 209 ft 100 kts 96°
2026-05-07 13:08 53.42089 -6.26284 218 ft 51 kts 95°
2026-05-07 13:09 53.42074 -6.25883 215 ft 27 kts 96°
2026-05-07 13:09 53.42059 -6.25588 211 ft 24 kts 90°
2026-05-07 13:09 53.42117 -6.25340 212 ft 18 kts 62°
2026-05-07 13:09 53.42182 -6.25145 214 ft 20 kts 61°
2026-05-07 13:10 53.42255 -6.24952 214 ft 15 kts 45°
2026-05-07 13:10 53.42319 -6.24841 212 ft 13 kts 46°
2026-05-07 13:10 53.42381 -6.24733 212 ft 13 kts 46°
2026-05-07 13:10 53.42427 -6.24613 218 ft 12 kts 62°
2026-05-07 13:11 53.42479 -6.24521 211 ft 10 kts
2026-05-07 13:11 53.42540 -6.24535 218 ft 3 kts 352°
2026-05-07 13:11 53.42557 -6.24538 211 ft 2 kts 354°
2026-05-07 13:11 53.42560 -6.24538 211 ft 0 kts 354°